Index of /20260415/WXO-DD/model_gdps/15km/12/105
Name Last modified Size Description
Parent Directory -
20260415T12Z_MSC_GDPS_AbsoluteVorticity_IsbL-0200_LatLon0.15_PT105H.grib2 2026-04-15 16:25 1.2M
20260415T12Z_MSC_GDPS_AbsoluteVorticity_IsbL-0250_LatLon0.15_PT105H.grib2 2026-04-15 16:25 1.3M
20260415T12Z_MSC_GDPS_AbsoluteVorticity_IsbL-0500_LatLon0.15_PT105H.grib2 2026-04-15 16:25 1.5M
20260415T12Z_MSC_GDPS_AbsoluteVorticity_IsbL-0700_LatLon0.15_PT105H.grib2 2026-04-15 16:25 1.3M
20260415T12Z_MSC_GDPS_AbsoluteVorticity_IsbL-0850_LatLon0.15_PT105H.grib2 2026-04-15 16:25 1.6M
20260415T12Z_MSC_GDPS_AirTemp_AGL-120m_LatLon0.15_PT105H.grib2 2026-04-15 16:25 914K
20260415T12Z_MSC_GDPS_AirTemp_AGL-2m_LatLon0.15_PT105H.grib2 2026-04-15 16:25 1.0M
20260415T12Z_MSC_GDPS_AirTemp_AGL-40m_LatLon0.15_PT105H.grib2 2026-04-15 16:25 936K
20260415T12Z_MSC_GDPS_AirTemp_AGL-80m_LatLon0.15_PT105H.grib2 2026-04-15 16:25 924K
20260415T12Z_MSC_GDPS_AirTemp_IsbL-0001_LatLon0.15_PT105H.grib2 2026-04-15 16:25 705K
20260415T12Z_MSC_GDPS_AirTemp_IsbL-0005_LatLon0.15_PT105H.grib2 2026-04-15 16:25 689K
20260415T12Z_MSC_GDPS_AirTemp_IsbL-0010_LatLon0.15_PT105H.grib2 2026-04-15 16:25 757K
20260415T12Z_MSC_GDPS_AirTemp_IsbL-0020_LatLon0.15_PT105H.grib2 2026-04-15 16:25 700K
20260415T12Z_MSC_GDPS_AirTemp_IsbL-0030_LatLon0.15_PT105H.grib2 2026-04-15 16:25 752K
20260415T12Z_MSC_GDPS_AirTemp_IsbL-0050_LatLon0.15_PT105H.grib2 2026-04-15 16:25 817K
20260415T12Z_MSC_GDPS_AirTemp_IsbL-0100_LatLon0.15_PT105H.grib2 2026-04-15 16:25 957K
20260415T12Z_MSC_GDPS_AirTemp_IsbL-0150_LatLon0.15_PT105H.grib2 2026-04-15 16:25 1.0M
20260415T12Z_MSC_GDPS_AirTemp_IsbL-0175_LatLon0.15_PT105H.grib2 2026-04-15 16:25 970K
20260415T12Z_MSC_GDPS_AirTemp_IsbL-0200_LatLon0.15_PT105H.grib2 2026-04-15 16:25 1.0M
20260415T12Z_MSC_GDPS_AirTemp_IsbL-0225_LatLon0.15_PT105H.grib2 2026-04-15 16:25 1.0M
20260415T12Z_MSC_GDPS_AirTemp_IsbL-0250_LatLon0.15_PT105H.grib2 2026-04-15 16:25 1.0M
20260415T12Z_MSC_GDPS_AirTemp_IsbL-0275_LatLon0.15_PT105H.grib2 2026-04-15 16:25 1.0M
20260415T12Z_MSC_GDPS_AirTemp_IsbL-0300_LatLon0.15_PT105H.grib2 2026-04-15 16:25 1.0M
20260415T12Z_MSC_GDPS_AirTemp_IsbL-0350_LatLon0.15_PT105H.grib2 2026-04-15 16:25 925K
20260415T12Z_MSC_GDPS_AirTemp_IsbL-0400_LatLon0.15_PT105H.grib2 2026-04-15 16:25 938K
20260415T12Z_MSC_GDPS_AirTemp_IsbL-0450_LatLon0.15_PT105H.grib2 2026-04-15 16:25 962K
20260415T12Z_MSC_GDPS_AirTemp_IsbL-0500_LatLon0.15_PT105H.grib2 2026-04-15 16:25 1.0M
20260415T12Z_MSC_GDPS_AirTemp_IsbL-0550_LatLon0.15_PT105H.grib2 2026-04-15 16:25 1.0M
20260415T12Z_MSC_GDPS_AirTemp_IsbL-0600_LatLon0.15_PT105H.grib2 2026-04-15 16:25 901K
20260415T12Z_MSC_GDPS_AirTemp_IsbL-0650_LatLon0.15_PT105H.grib2 2026-04-15 16:25 928K
20260415T12Z_MSC_GDPS_AirTemp_IsbL-0700_LatLon0.15_PT105H.grib2 2026-04-15 16:25 962K
20260415T12Z_MSC_GDPS_AirTemp_IsbL-0750_LatLon0.15_PT105H.grib2 2026-04-15 16:25 1.0M
20260415T12Z_MSC_GDPS_AirTemp_IsbL-0800_LatLon0.15_PT105H.grib2 2026-04-15 16:25 1.1M
20260415T12Z_MSC_GDPS_AirTemp_IsbL-0850_LatLon0.15_PT105H.grib2 2026-04-15 16:25 1.1M
20260415T12Z_MSC_GDPS_AirTemp_IsbL-0875_LatLon0.15_PT105H.grib2 2026-04-15 16:25 1.1M
20260415T12Z_MSC_GDPS_AirTemp_IsbL-0900_LatLon0.15_PT105H.grib2 2026-04-15 16:25 1.1M
20260415T12Z_MSC_GDPS_AirTemp_IsbL-0925_LatLon0.15_PT105H.grib2 2026-04-15 16:25 1.1M
20260415T12Z_MSC_GDPS_AirTemp_IsbL-0950_LatLon0.15_PT105H.grib2 2026-04-15 16:25 1.1M
20260415T12Z_MSC_GDPS_AirTemp_IsbL-0970_LatLon0.15_PT105H.grib2 2026-04-15 16:25 1.2M
20260415T12Z_MSC_GDPS_AirTemp_IsbL-0985_LatLon0.15_PT105H.grib2 2026-04-15 16:25 1.1M
20260415T12Z_MSC_GDPS_AirTemp_IsbL-1000_LatLon0.15_PT105H.grib2 2026-04-15 16:25 1.1M
20260415T12Z_MSC_GDPS_AirTemp_IsbL-1015_LatLon0.15_PT105H.grib2 2026-04-15 16:25 1.1M
20260415T12Z_MSC_GDPS_Albedo_Sfc_LatLon0.15_PT105H.grib2 2026-04-15 16:25 246K
20260415T12Z_MSC_GDPS_CAPE_Sfc_LatLon0.15_PT105H.grib2 2026-04-15 16:25 3.8M
20260415T12Z_MSC_GDPS_CIN_Sfc_LatLon0.15_PT105H.grib2 2026-04-15 16:25 2.8M
20260415T12Z_MSC_GDPS_CloudWater_EAtm_LatLon0.15_PT105H.grib2 2026-04-15 16:25 534K
20260415T12Z_MSC_GDPS_ConvectivePrecip-Accum_Sfc_LatLon0.15_PT105H.grib2 2026-04-15 16:25 3.3M
20260415T12Z_MSC_GDPS_DewPointDepression_AGL-2m_LatLon0.15_PT105H.grib2 2026-04-15 16:25 750K
20260415T12Z_MSC_GDPS_DewPointDepression_IsbL-0010_LatLon0.15_PT105H.grib2 2026-04-15 16:25 8.1K
20260415T12Z_MSC_GDPS_DewPointDepression_IsbL-0020_LatLon0.15_PT105H.grib2 2026-04-15 16:25 80K
20260415T12Z_MSC_GDPS_DewPointDepression_IsbL-0030_LatLon0.15_PT105H.grib2 2026-04-15 16:25 69K
20260415T12Z_MSC_GDPS_DewPointDepression_IsbL-0050_LatLon0.15_PT105H.grib2 2026-04-15 16:25 324K
20260415T12Z_MSC_GDPS_DewPointDepression_IsbL-0100_LatLon0.15_PT105H.grib2 2026-04-15 16:25 381K
20260415T12Z_MSC_GDPS_DewPointDepression_IsbL-0150_LatLon0.15_PT105H.grib2 2026-04-15 16:25 463K
20260415T12Z_MSC_GDPS_DewPointDepression_IsbL-0175_LatLon0.15_PT105H.grib2 2026-04-15 16:25 546K
20260415T12Z_MSC_GDPS_DewPointDepression_IsbL-0200_LatLon0.15_PT105H.grib2 2026-04-15 16:25 620K
20260415T12Z_MSC_GDPS_DewPointDepression_IsbL-0225_LatLon0.15_PT105H.grib2 2026-04-15 16:25 754K
20260415T12Z_MSC_GDPS_DewPointDepression_IsbL-0250_LatLon0.15_PT105H.grib2 2026-04-15 16:25 868K
20260415T12Z_MSC_GDPS_DewPointDepression_IsbL-0275_LatLon0.15_PT105H.grib2 2026-04-15 16:25 884K
20260415T12Z_MSC_GDPS_DewPointDepression_IsbL-0300_LatLon0.15_PT105H.grib2 2026-04-15 16:25 922K
20260415T12Z_MSC_GDPS_DewPointDepression_IsbL-0350_LatLon0.15_PT105H.grib2 2026-04-15 16:25 954K
20260415T12Z_MSC_GDPS_DewPointDepression_IsbL-0400_LatLon0.15_PT105H.grib2 2026-04-15 16:25 1.0M
20260415T12Z_MSC_GDPS_DewPointDepression_IsbL-0450_LatLon0.15_PT105H.grib2 2026-04-15 16:25 1.0M
20260415T12Z_MSC_GDPS_DewPointDepression_IsbL-0500_LatLon0.15_PT105H.grib2 2026-04-15 16:25 1.0M
20260415T12Z_MSC_GDPS_DewPointDepression_IsbL-0550_LatLon0.15_PT105H.grib2 2026-04-15 16:25 1.0M
20260415T12Z_MSC_GDPS_DewPointDepression_IsbL-0600_LatLon0.15_PT105H.grib2 2026-04-15 16:25 1.1M
20260415T12Z_MSC_GDPS_DewPointDepression_IsbL-0650_LatLon0.15_PT105H.grib2 2026-04-15 16:25 1.1M
20260415T12Z_MSC_GDPS_DewPointDepression_IsbL-0700_LatLon0.15_PT105H.grib2 2026-04-15 16:25 1.1M
20260415T12Z_MSC_GDPS_DewPointDepression_IsbL-0750_LatLon0.15_PT105H.grib2 2026-04-15 16:25 1.1M
20260415T12Z_MSC_GDPS_DewPointDepression_IsbL-0800_LatLon0.15_PT105H.grib2 2026-04-15 16:25 1.2M
20260415T12Z_MSC_GDPS_DewPointDepression_IsbL-0850_LatLon0.15_PT105H.grib2 2026-04-15 16:25 1.2M
20260415T12Z_MSC_GDPS_DewPointDepression_IsbL-0875_LatLon0.15_PT105H.grib2 2026-04-15 16:25 1.1M
20260415T12Z_MSC_GDPS_DewPointDepression_IsbL-0900_LatLon0.15_PT105H.grib2 2026-04-15 16:25 1.1M
20260415T12Z_MSC_GDPS_DewPointDepression_IsbL-0925_LatLon0.15_PT105H.grib2 2026-04-15 16:25 1.0M
20260415T12Z_MSC_GDPS_DewPointDepression_IsbL-0950_LatLon0.15_PT105H.grib2 2026-04-15 16:25 1.0M
20260415T12Z_MSC_GDPS_DewPointDepression_IsbL-0970_LatLon0.15_PT105H.grib2 2026-04-15 16:25 1.0M
20260415T12Z_MSC_GDPS_DewPointDepression_IsbL-0985_LatLon0.15_PT105H.grib2 2026-04-15 16:25 1.0M
20260415T12Z_MSC_GDPS_DewPointDepression_IsbL-1000_LatLon0.15_PT105H.grib2 2026-04-15 16:25 969K
20260415T12Z_MSC_GDPS_DewPointDepression_IsbL-1015_LatLon0.15_PT105H.grib2 2026-04-15 16:25 904K
20260415T12Z_MSC_GDPS_DewPoint_AGL-2m_LatLon0.15_PT105H.grib2 2026-04-15 16:25 611K
20260415T12Z_MSC_GDPS_DownwardLongwaveRadiationFlux-Accum_Sfc_LatLon0.15_PT105H.grib2 2026-04-15 16:25 774K
20260415T12Z_MSC_GDPS_DownwardShortwaveRadiationFlux-Accum_NTAtm_LatLon0.15_PT105H.grib2 2026-04-15 16:25 313K
20260415T12Z_MSC_GDPS_DownwardShortwaveRadiationFlux-Accum_Sfc_LatLon0.15_PT105H.grib2 2026-04-15 16:25 1.0M
20260415T12Z_MSC_GDPS_FreezingRain-Accum1h_Sfc_LatLon0.15_PT105H.grib2 2026-04-15 16:25 41K
20260415T12Z_MSC_GDPS_FreezingRain-Accum3h_Sfc_LatLon0.15_PT105H.grib2 2026-04-15 16:25 50K
20260415T12Z_MSC_GDPS_FreezingRain-Accum_Sfc_LatLon0.15_PT105H.grib2 2026-04-15 16:25 298K
20260415T12Z_MSC_GDPS_GeopotentialHeight_IsbL-0001_LatLon0.15_PT105H.grib2 2026-04-15 16:25 386K
20260415T12Z_MSC_GDPS_GeopotentialHeight_IsbL-0005_LatLon0.15_PT105H.grib2 2026-04-15 16:25 500K
20260415T12Z_MSC_GDPS_GeopotentialHeight_IsbL-0010_LatLon0.15_PT105H.grib2 2026-04-15 16:25 431K
20260415T12Z_MSC_GDPS_GeopotentialHeight_IsbL-0020_LatLon0.15_PT105H.grib2 2026-04-15 16:25 575K
20260415T12Z_MSC_GDPS_GeopotentialHeight_IsbL-0030_LatLon0.15_PT105H.grib2 2026-04-15 16:25 582K
20260415T12Z_MSC_GDPS_GeopotentialHeight_IsbL-0050_LatLon0.15_PT105H.grib2 2026-04-15 16:25 585K
20260415T12Z_MSC_GDPS_GeopotentialHeight_IsbL-0100_LatLon0.15_PT105H.grib2 2026-04-15 16:25 622K
20260415T12Z_MSC_GDPS_GeopotentialHeight_IsbL-0150_LatLon0.15_PT105H.grib2 2026-04-15 16:25 638K
20260415T12Z_MSC_GDPS_GeopotentialHeight_IsbL-0175_LatLon0.15_PT105H.grib2 2026-04-15 16:25 641K
20260415T12Z_MSC_GDPS_GeopotentialHeight_IsbL-0200_LatLon0.15_PT105H.grib2 2026-04-15 16:25 644K
20260415T12Z_MSC_GDPS_GeopotentialHeight_IsbL-0225_LatLon0.15_PT105H.grib2 2026-04-15 16:25 646K
20260415T12Z_MSC_GDPS_GeopotentialHeight_IsbL-0250_LatLon0.15_PT105H.grib2 2026-04-15 16:25 646K
20260415T12Z_MSC_GDPS_GeopotentialHeight_IsbL-0275_LatLon0.15_PT105H.grib2 2026-04-15 16:25 644K
20260415T12Z_MSC_GDPS_GeopotentialHeight_IsbL-0300_LatLon0.15_PT105H.grib2 2026-04-15 16:25 641K
20260415T12Z_MSC_GDPS_GeopotentialHeight_IsbL-0350_LatLon0.15_PT105H.grib2 2026-04-15 16:25 629K
20260415T12Z_MSC_GDPS_GeopotentialHeight_IsbL-0400_LatLon0.15_PT105H.grib2 2026-04-15 16:25 621K
20260415T12Z_MSC_GDPS_GeopotentialHeight_IsbL-0450_LatLon0.15_PT105H.grib2 2026-04-15 16:25 543K
20260415T12Z_MSC_GDPS_GeopotentialHeight_IsbL-0500_LatLon0.15_PT105H.grib2 2026-04-15 16:25 531K
20260415T12Z_MSC_GDPS_GeopotentialHeight_IsbL-0550_LatLon0.15_PT105H.grib2 2026-04-15 16:25 696K
20260415T12Z_MSC_GDPS_GeopotentialHeight_IsbL-0600_LatLon0.15_PT105H.grib2 2026-04-15 16:25 690K
20260415T12Z_MSC_GDPS_GeopotentialHeight_IsbL-0650_LatLon0.15_PT105H.grib2 2026-04-15 16:25 685K
20260415T12Z_MSC_GDPS_GeopotentialHeight_IsbL-0700_LatLon0.15_PT105H.grib2 2026-04-15 16:25 681K
20260415T12Z_MSC_GDPS_GeopotentialHeight_IsbL-0750_LatLon0.15_PT105H.grib2 2026-04-15 16:25 689K
20260415T12Z_MSC_GDPS_GeopotentialHeight_IsbL-0800_LatLon0.15_PT105H.grib2 2026-04-15 16:25 634K
20260415T12Z_MSC_GDPS_GeopotentialHeight_IsbL-0850_LatLon0.15_PT105H.grib2 2026-04-15 16:25 644K
20260415T12Z_MSC_GDPS_GeopotentialHeight_IsbL-0875_LatLon0.15_PT105H.grib2 2026-04-15 16:25 650K
20260415T12Z_MSC_GDPS_GeopotentialHeight_IsbL-0900_LatLon0.15_PT105H.grib2 2026-04-15 16:25 658K
20260415T12Z_MSC_GDPS_GeopotentialHeight_IsbL-0925_LatLon0.15_PT105H.grib2 2026-04-15 16:25 666K
20260415T12Z_MSC_GDPS_GeopotentialHeight_IsbL-0950_LatLon0.15_PT105H.grib2 2026-04-15 16:25 737K
20260415T12Z_MSC_GDPS_GeopotentialHeight_IsbL-0970_LatLon0.15_PT105H.grib2 2026-04-15 16:25 745K
20260415T12Z_MSC_GDPS_GeopotentialHeight_IsbL-0985_LatLon0.15_PT105H.grib2 2026-04-15 16:25 765K
20260415T12Z_MSC_GDPS_GeopotentialHeight_IsbL-1000_LatLon0.15_PT105H.grib2 2026-04-15 16:25 787K
20260415T12Z_MSC_GDPS_GeopotentialHeight_IsbL-1015_LatLon0.15_PT105H.grib2 2026-04-15 16:25 812K
20260415T12Z_MSC_GDPS_Humidex_Sfc_LatLon0.15_PT105H.grib2 2026-04-15 16:25 5.3M
20260415T12Z_MSC_GDPS_IcePellets-Accum1h_Sfc_LatLon0.15_PT105H.grib2 2026-04-15 16:25 23K
20260415T12Z_MSC_GDPS_IcePellets-Accum3h_Sfc_LatLon0.15_PT105H.grib2 2026-04-15 16:25 28K
20260415T12Z_MSC_GDPS_IcePellets-Accum_Sfc_LatLon0.15_PT105H.grib2 2026-04-15 16:25 153K
20260415T12Z_MSC_GDPS_KIndex_Sfc_LatLon0.15_PT105H.grib2 2026-04-15 16:25 6.5M
20260415T12Z_MSC_GDPS_LatentHeatNetFlux_Sfc_LatLon0.15_PT105H.grib2 2026-04-15 16:25 654K
20260415T12Z_MSC_GDPS_LiftedIndex-MU-VT_IsbL-0500_LatLon0.15_PT105H.grib2 2026-04-15 16:25 5.3M
20260415T12Z_MSC_GDPS_NetLongwaveRadiationFlux-Accum_Sfc_LatLon0.15_PT105H.grib2 2026-04-15 16:25 1.0M
20260415T12Z_MSC_GDPS_NetShortwaveRadiationFlux-Accum_Sfc_LatLon0.15_PT105H.grib2 2026-04-15 16:25 969K
20260415T12Z_MSC_GDPS_O3MixingRatio_LatLon0.15_PT105H.grib2 2026-04-15 16:49 2.3M
20260415T12Z_MSC_GDPS_O3_EAtm_LatLon0.15_PT105H.grib2 2026-04-15 16:49 2.1M
20260415T12Z_MSC_GDPS_PlanetaryBoundaryLayerHeight_Sfc_LatLon0.15_PT105H.grib2 2026-04-15 16:25 2.4M
20260415T12Z_MSC_GDPS_Precip-Accum1h_Sfc_LatLon0.15_PT105H.grib2 2026-04-15 16:25 3.2M
20260415T12Z_MSC_GDPS_Precip-Accum3h_Sfc_LatLon0.15_PT105H.grib2 2026-04-15 16:25 3.5M
20260415T12Z_MSC_GDPS_Precip-Accum_Sfc_LatLon0.15_PT105H.grib2 2026-04-15 16:25 5.0M
20260415T12Z_MSC_GDPS_PrecipRate_Sfc_LatLon0.15_PT105H.grib2 2026-04-15 16:25 3.0M
20260415T12Z_MSC_GDPS_PrecipType-Instant_Sfc_LatLon0.15_PT105H.grib2 2026-04-15 16:25 1.5M
20260415T12Z_MSC_GDPS_Pressure_MSL_LatLon0.15_PT105H.grib2 2026-04-15 16:25 725K
20260415T12Z_MSC_GDPS_Pressure_PVU-1.5_LatLon0.15_PT105H.grib2 2026-04-15 16:25 5.8M
20260415T12Z_MSC_GDPS_Pressure_PVU-1_LatLon0.15_PT105H.grib2 2026-04-15 16:25 6.0M
20260415T12Z_MSC_GDPS_Pressure_PVU-2_LatLon0.15_PT105H.grib2 2026-04-15 16:25 5.6M
20260415T12Z_MSC_GDPS_Pressure_Sfc_LatLon0.15_PT105H.grib2 2026-04-15 16:25 1.1M
20260415T12Z_MSC_GDPS_RadiativeTemp_Sfc_LatLon0.15_PT105H.grib2 2026-04-15 16:25 664K
20260415T12Z_MSC_GDPS_Rain-Accum1h_Sfc_LatLon0.15_PT105H.grib2 2026-04-15 16:25 1.5M
20260415T12Z_MSC_GDPS_Rain-Accum3h_Sfc_LatLon0.15_PT105H.grib2 2026-04-15 16:25 1.8M
20260415T12Z_MSC_GDPS_Rain-Accum_Sfc_LatLon0.15_PT105H.grib2 2026-04-15 16:25 3.8M
20260415T12Z_MSC_GDPS_RelativeHumidity_AGL-2m_LatLon0.15_PT105H.grib2 2026-04-15 16:25 1.0M
20260415T12Z_MSC_GDPS_RelativeHumidity_IsbL-0010_LatLon0.15_PT105H.grib2 2026-04-15 16:25 233K
20260415T12Z_MSC_GDPS_RelativeHumidity_IsbL-0020_LatLon0.15_PT105H.grib2 2026-04-15 16:25 373K
20260415T12Z_MSC_GDPS_RelativeHumidity_IsbL-0030_LatLon0.15_PT105H.grib2 2026-04-15 16:25 378K
20260415T12Z_MSC_GDPS_RelativeHumidity_IsbL-0050_LatLon0.15_PT105H.grib2 2026-04-15 16:25 410K
20260415T12Z_MSC_GDPS_RelativeHumidity_IsbL-0100_LatLon0.15_PT105H.grib2 2026-04-15 16:25 485K
20260415T12Z_MSC_GDPS_RelativeHumidity_IsbL-0150_LatLon0.15_PT105H.grib2 2026-04-15 16:25 659K
20260415T12Z_MSC_GDPS_RelativeHumidity_IsbL-0175_LatLon0.15_PT105H.grib2 2026-04-15 16:25 794K
20260415T12Z_MSC_GDPS_RelativeHumidity_IsbL-0200_LatLon0.15_PT105H.grib2 2026-04-15 16:25 695K
20260415T12Z_MSC_GDPS_RelativeHumidity_IsbL-0225_LatLon0.15_PT105H.grib2 2026-04-15 16:25 782K
20260415T12Z_MSC_GDPS_RelativeHumidity_IsbL-0250_LatLon0.15_PT105H.grib2 2026-04-15 16:25 874K
20260415T12Z_MSC_GDPS_RelativeHumidity_IsbL-0275_LatLon0.15_PT105H.grib2 2026-04-15 16:25 899K
20260415T12Z_MSC_GDPS_RelativeHumidity_IsbL-0300_LatLon0.15_PT105H.grib2 2026-04-15 16:25 941K
20260415T12Z_MSC_GDPS_RelativeHumidity_IsbL-0350_LatLon0.15_PT105H.grib2 2026-04-15 16:25 957K
20260415T12Z_MSC_GDPS_RelativeHumidity_IsbL-0400_LatLon0.15_PT105H.grib2 2026-04-15 16:25 1.0M
20260415T12Z_MSC_GDPS_RelativeHumidity_IsbL-0450_LatLon0.15_PT105H.grib2 2026-04-15 16:25 1.0M
20260415T12Z_MSC_GDPS_RelativeHumidity_IsbL-0500_LatLon0.15_PT105H.grib2 2026-04-15 16:25 1.0M
20260415T12Z_MSC_GDPS_RelativeHumidity_IsbL-0550_LatLon0.15_PT105H.grib2 2026-04-15 16:25 1.0M
20260415T12Z_MSC_GDPS_RelativeHumidity_IsbL-0600_LatLon0.15_PT105H.grib2 2026-04-15 16:25 1.1M
20260415T12Z_MSC_GDPS_RelativeHumidity_IsbL-0650_LatLon0.15_PT105H.grib2 2026-04-15 16:25 1.1M
20260415T12Z_MSC_GDPS_RelativeHumidity_IsbL-0700_LatLon0.15_PT105H.grib2 2026-04-15 16:25 1.2M
20260415T12Z_MSC_GDPS_RelativeHumidity_IsbL-0750_LatLon0.15_PT105H.grib2 2026-04-15 16:25 1.2M
20260415T12Z_MSC_GDPS_RelativeHumidity_IsbL-0800_LatLon0.15_PT105H.grib2 2026-04-15 16:25 1.3M
20260415T12Z_MSC_GDPS_RelativeHumidity_IsbL-0850_LatLon0.15_PT105H.grib2 2026-04-15 16:25 1.3M
20260415T12Z_MSC_GDPS_RelativeHumidity_IsbL-0875_LatLon0.15_PT105H.grib2 2026-04-15 16:25 1.2M
20260415T12Z_MSC_GDPS_RelativeHumidity_IsbL-0900_LatLon0.15_PT105H.grib2 2026-04-15 16:25 1.2M
20260415T12Z_MSC_GDPS_RelativeHumidity_IsbL-0925_LatLon0.15_PT105H.grib2 2026-04-15 16:25 1.2M
20260415T12Z_MSC_GDPS_RelativeHumidity_IsbL-0950_LatLon0.15_PT105H.grib2 2026-04-15 16:25 1.2M
20260415T12Z_MSC_GDPS_RelativeHumidity_IsbL-0970_LatLon0.15_PT105H.grib2 2026-04-15 16:25 1.2M
20260415T12Z_MSC_GDPS_RelativeHumidity_IsbL-0985_LatLon0.15_PT105H.grib2 2026-04-15 16:25 1.1M
20260415T12Z_MSC_GDPS_RelativeHumidity_IsbL-1000_LatLon0.15_PT105H.grib2 2026-04-15 16:25 1.1M
20260415T12Z_MSC_GDPS_RelativeHumidity_IsbL-1015_LatLon0.15_PT105H.grib2 2026-04-15 16:25 1.0M
20260415T12Z_MSC_GDPS_RelativeVorticity_IsbL-0200_LatLon0.15_PT105H.grib2 2026-04-15 16:25 1.2M
20260415T12Z_MSC_GDPS_RelativeVorticity_IsbL-0250_LatLon0.15_PT105H.grib2 2026-04-15 16:25 1.3M
20260415T12Z_MSC_GDPS_RelativeVorticity_IsbL-0500_LatLon0.15_PT105H.grib2 2026-04-15 16:25 1.5M
20260415T12Z_MSC_GDPS_RelativeVorticity_IsbL-0700_LatLon0.15_PT105H.grib2 2026-04-15 16:25 1.6M
20260415T12Z_MSC_GDPS_RelativeVorticity_IsbL-0850_LatLon0.15_PT105H.grib2 2026-04-15 16:25 1.6M
20260415T12Z_MSC_GDPS_Runoff-Accum_Sfc_LatLon0.15_PT105H.grib2 2026-04-15 16:25 150K
20260415T12Z_MSC_GDPS_SensibleHeatNetFlux_Sfc_LatLon0.15_PT105H.grib2 2026-04-15 16:25 597K
20260415T12Z_MSC_GDPS_ShowalterIndex_IsbL-0500_LatLon0.15_PT105H.grib2 2026-04-15 16:25 6.2M
20260415T12Z_MSC_GDPS_Snow-Accum1h_Sfc_LatLon0.15_PT105H.grib2 2026-04-15 16:25 1.1M
20260415T12Z_MSC_GDPS_Snow-Accum3h_Sfc_LatLon0.15_PT105H.grib2 2026-04-15 16:25 1.0M
20260415T12Z_MSC_GDPS_Snow-Accum_Sfc_LatLon0.15_PT105H.grib2 2026-04-15 16:25 2.1M
20260415T12Z_MSC_GDPS_SnowDensity_Sfc_LatLon0.15_PT105H.grib2 2026-04-15 16:25 271K
20260415T12Z_MSC_GDPS_SnowDepth_Sfc_LatLon0.15_PT105H.grib2 2026-04-15 16:25 1.8M
20260415T12Z_MSC_GDPS_SoilTemp_DBS-0to10cm_LatLon0.15_PT105H.grib2 2026-04-15 16:25 508K
20260415T12Z_MSC_GDPS_SoilTemp_Sfc_LatLon0.15_PT105H.grib2 2026-04-15 16:25 580K
20260415T12Z_MSC_GDPS_SoilVolumetricIceContent_Sfc_LatLon0.15_PT105H.grib2 2026-04-15 16:25 223K
20260415T12Z_MSC_GDPS_SoilVolumetricWaterContent_DBS-0to10cm_LatLon0.15_PT105H.grib2 2026-04-15 16:25 554K
20260415T12Z_MSC_GDPS_SoilVolumetricWaterContent_DBS-0to1cm_LatLon0.15_PT105H.grib2 2026-04-15 16:25 654K
20260415T12Z_MSC_GDPS_SpecificHumidity_AGL-120m_LatLon0.15_PT105H.grib2 2026-04-15 16:25 1.1M
20260415T12Z_MSC_GDPS_SpecificHumidity_AGL-2m_LatLon0.15_PT105H.grib2 2026-04-15 16:25 1.2M
20260415T12Z_MSC_GDPS_SpecificHumidity_AGL-40m_LatLon0.15_PT105H.grib2 2026-04-15 16:25 1.1M
20260415T12Z_MSC_GDPS_SpecificHumidity_AGL-80m_LatLon0.15_PT105H.grib2 2026-04-15 16:25 1.1M
20260415T12Z_MSC_GDPS_SpecificHumidity_IsbL-0001_LatLon0.15_PT105H.grib2 2026-04-15 16:25 1.2M
20260415T12Z_MSC_GDPS_SpecificHumidity_IsbL-0005_LatLon0.15_PT105H.grib2 2026-04-15 16:25 1.1M
20260415T12Z_MSC_GDPS_SpecificHumidity_IsbL-0010_LatLon0.15_PT105H.grib2 2026-04-15 16:25 1.2M
20260415T12Z_MSC_GDPS_SpecificHumidity_IsbL-0020_LatLon0.15_PT105H.grib2 2026-04-15 16:25 1.6M
20260415T12Z_MSC_GDPS_SpecificHumidity_IsbL-0030_LatLon0.15_PT105H.grib2 2026-04-15 16:25 1.6M
20260415T12Z_MSC_GDPS_SpecificHumidity_IsbL-0050_LatLon0.15_PT105H.grib2 2026-04-15 16:25 1.3M
20260415T12Z_MSC_GDPS_SpecificHumidity_IsbL-0100_LatLon0.15_PT105H.grib2 2026-04-15 16:25 1.3M
20260415T12Z_MSC_GDPS_SpecificHumidity_IsbL-0150_LatLon0.15_PT105H.grib2 2026-04-15 16:25 1.3M
20260415T12Z_MSC_GDPS_SpecificHumidity_IsbL-0175_LatLon0.15_PT105H.grib2 2026-04-15 16:25 1.3M
20260415T12Z_MSC_GDPS_SpecificHumidity_IsbL-0200_LatLon0.15_PT105H.grib2 2026-04-15 16:25 1.3M
20260415T12Z_MSC_GDPS_SpecificHumidity_IsbL-0225_LatLon0.15_PT105H.grib2 2026-04-15 16:25 1.3M
20260415T12Z_MSC_GDPS_SpecificHumidity_IsbL-0250_LatLon0.15_PT105H.grib2 2026-04-15 16:25 1.4M
20260415T12Z_MSC_GDPS_SpecificHumidity_IsbL-0275_LatLon0.15_PT105H.grib2 2026-04-15 16:25 1.3M
20260415T12Z_MSC_GDPS_SpecificHumidity_IsbL-0300_LatLon0.15_PT105H.grib2 2026-04-15 16:25 1.2M
20260415T12Z_MSC_GDPS_SpecificHumidity_IsbL-0350_LatLon0.15_PT105H.grib2 2026-04-15 16:25 1.2M
20260415T12Z_MSC_GDPS_SpecificHumidity_IsbL-0400_LatLon0.15_PT105H.grib2 2026-04-15 16:25 1.5M
20260415T12Z_MSC_GDPS_SpecificHumidity_IsbL-0450_LatLon0.15_PT105H.grib2 2026-04-15 16:25 1.3M
20260415T12Z_MSC_GDPS_SpecificHumidity_IsbL-0500_LatLon0.15_PT105H.grib2 2026-04-15 16:25 1.4M
20260415T12Z_MSC_GDPS_SpecificHumidity_IsbL-0550_LatLon0.15_PT105H.grib2 2026-04-15 16:25 1.6M
20260415T12Z_MSC_GDPS_SpecificHumidity_IsbL-0600_LatLon0.15_PT105H.grib2 2026-04-15 16:25 1.8M
20260415T12Z_MSC_GDPS_SpecificHumidity_IsbL-0650_LatLon0.15_PT105H.grib2 2026-04-15 16:25 1.5M
20260415T12Z_MSC_GDPS_SpecificHumidity_IsbL-0700_LatLon0.15_PT105H.grib2 2026-04-15 16:25 1.6M
20260415T12Z_MSC_GDPS_SpecificHumidity_IsbL-0750_LatLon0.15_PT105H.grib2 2026-04-15 16:25 1.7M
20260415T12Z_MSC_GDPS_SpecificHumidity_IsbL-0800_LatLon0.15_PT105H.grib2 2026-04-15 16:25 1.8M
20260415T12Z_MSC_GDPS_SpecificHumidity_IsbL-0850_LatLon0.15_PT105H.grib2 2026-04-15 16:25 1.9M
20260415T12Z_MSC_GDPS_SpecificHumidity_IsbL-0875_LatLon0.15_PT105H.grib2 2026-04-15 16:25 1.9M
20260415T12Z_MSC_GDPS_SpecificHumidity_IsbL-0900_LatLon0.15_PT105H.grib2 2026-04-15 16:25 1.9M
20260415T12Z_MSC_GDPS_SpecificHumidity_IsbL-0925_LatLon0.15_PT105H.grib2 2026-04-15 16:25 1.6M
20260415T12Z_MSC_GDPS_SpecificHumidity_IsbL-0950_LatLon0.15_PT105H.grib2 2026-04-15 16:25 1.5M
20260415T12Z_MSC_GDPS_SpecificHumidity_IsbL-0970_LatLon0.15_PT105H.grib2 2026-04-15 16:25 1.5M
20260415T12Z_MSC_GDPS_SpecificHumidity_IsbL-0985_LatLon0.15_PT105H.grib2 2026-04-15 16:25 1.5M
20260415T12Z_MSC_GDPS_SpecificHumidity_IsbL-1000_LatLon0.15_PT105H.grib2 2026-04-15 16:25 1.5M
20260415T12Z_MSC_GDPS_SpecificHumidity_IsbL-1015_LatLon0.15_PT105H.grib2 2026-04-15 16:25 1.4M
20260415T12Z_MSC_GDPS_SpecificHumidity_Sfc_LatLon0.15_PT105H.grib2 2026-04-15 16:25 632K
20260415T12Z_MSC_GDPS_Thickness_IsbL-0850to0700_LatLon0.15_PT105H.grib2 2026-04-15 16:25 469K
20260415T12Z_MSC_GDPS_Thickness_IsbL-1000to0500_LatLon0.15_PT105H.grib2 2026-04-15 16:25 376K
20260415T12Z_MSC_GDPS_Thickness_IsbL-1000to0850_LatLon0.15_PT105H.grib2 2026-04-15 16:25 492K
20260415T12Z_MSC_GDPS_TotalCloudCover_Sfc_LatLon0.15_PT105H.grib2 2026-04-15 16:25 815K
20260415T12Z_MSC_GDPS_TotalTotalsIndex_Sfc_LatLon0.15_PT105H.grib2 2026-04-15 16:25 6.2M
20260415T12Z_MSC_GDPS_UVIndex-ClearSky_Sfc_LatLon0.15_PT105H.grib2 2026-04-15 16:49 1.0M
20260415T12Z_MSC_GDPS_UVIndex_Sfc_LatLon0.15_PT105H.grib2 2026-04-15 16:49 1.5M
20260415T12Z_MSC_GDPS_UpwardLongwaveRadiationFlux_NTAtm_LatLon0.15_PT105H.grib2 2026-04-15 16:25 839K
20260415T12Z_MSC_GDPS_VerticalVelocity_IsbL-0200_LatLon0.15_PT105H.grib2 2026-04-15 16:25 936K
20260415T12Z_MSC_GDPS_VerticalVelocity_IsbL-0250_LatLon0.15_PT105H.grib2 2026-04-15 16:25 1.1M
20260415T12Z_MSC_GDPS_VerticalVelocity_IsbL-0500_LatLon0.15_PT105H.grib2 2026-04-15 16:25 1.3M
20260415T12Z_MSC_GDPS_VerticalVelocity_IsbL-0600_LatLon0.15_PT105H.grib2 2026-04-15 16:25 1.3M
20260415T12Z_MSC_GDPS_VerticalVelocity_IsbL-0700_LatLon0.15_PT105H.grib2 2026-04-15 16:25 1.4M
20260415T12Z_MSC_GDPS_VerticalVelocity_IsbL-0850_LatLon0.15_PT105H.grib2 2026-04-15 16:25 1.3M
20260415T12Z_MSC_GDPS_WindChill_Sfc_LatLon0.15_PT105H.grib2 2026-04-15 16:25 5.4M
20260415T12Z_MSC_GDPS_WindDir_AGL-10m_LatLon0.15_PT105H.grib2 2026-04-15 16:25 1.4M
20260415T12Z_MSC_GDPS_WindDir_AGL-120m_LatLon0.15_PT105H.grib2 2026-04-15 16:25 1.4M
20260415T12Z_MSC_GDPS_WindDir_AGL-40m_LatLon0.15_PT105H.grib2 2026-04-15 16:25 1.4M
20260415T12Z_MSC_GDPS_WindDir_AGL-80m_LatLon0.15_PT105H.grib2 2026-04-15 16:25 1.4M
20260415T12Z_MSC_GDPS_WindDir_IsbL-0001_LatLon0.15_PT105H.grib2 2026-04-15 16:25 636K
20260415T12Z_MSC_GDPS_WindDir_IsbL-0005_LatLon0.15_PT105H.grib2 2026-04-15 16:25 802K
20260415T12Z_MSC_GDPS_WindDir_IsbL-0010_LatLon0.15_PT105H.grib2 2026-04-15 16:25 862K
20260415T12Z_MSC_GDPS_WindDir_IsbL-0020_LatLon0.15_PT105H.grib2 2026-04-15 16:25 941K
20260415T12Z_MSC_GDPS_WindDir_IsbL-0030_LatLon0.15_PT105H.grib2 2026-04-15 16:25 896K
20260415T12Z_MSC_GDPS_WindDir_IsbL-0050_LatLon0.15_PT105H.grib2 2026-04-15 16:25 952K
20260415T12Z_MSC_GDPS_WindDir_IsbL-0100_LatLon0.15_PT105H.grib2 2026-04-15 16:25 1.0M
20260415T12Z_MSC_GDPS_WindDir_IsbL-0150_LatLon0.15_PT105H.grib2 2026-04-15 16:25 1.0M
20260415T12Z_MSC_GDPS_WindDir_IsbL-0175_LatLon0.15_PT105H.grib2 2026-04-15 16:25 1.1M
20260415T12Z_MSC_GDPS_WindDir_IsbL-0200_LatLon0.15_PT105H.grib2 2026-04-15 16:25 1.1M
20260415T12Z_MSC_GDPS_WindDir_IsbL-0225_LatLon0.15_PT105H.grib2 2026-04-15 16:25 1.1M
20260415T12Z_MSC_GDPS_WindDir_IsbL-0250_LatLon0.15_PT105H.grib2 2026-04-15 16:25 1.1M
20260415T12Z_MSC_GDPS_WindDir_IsbL-0275_LatLon0.15_PT105H.grib2 2026-04-15 16:25 1.2M
20260415T12Z_MSC_GDPS_WindDir_IsbL-0300_LatLon0.15_PT105H.grib2 2026-04-15 16:25 1.2M
20260415T12Z_MSC_GDPS_WindDir_IsbL-0350_LatLon0.15_PT105H.grib2 2026-04-15 16:25 1.2M
20260415T12Z_MSC_GDPS_WindDir_IsbL-0400_LatLon0.15_PT105H.grib2 2026-04-15 16:25 1.3M
20260415T12Z_MSC_GDPS_WindDir_IsbL-0450_LatLon0.15_PT105H.grib2 2026-04-15 16:25 1.3M
20260415T12Z_MSC_GDPS_WindDir_IsbL-0500_LatLon0.15_PT105H.grib2 2026-04-15 16:25 1.3M
20260415T12Z_MSC_GDPS_WindDir_IsbL-0550_LatLon0.15_PT105H.grib2 2026-04-15 16:25 1.4M
20260415T12Z_MSC_GDPS_WindDir_IsbL-0600_LatLon0.15_PT105H.grib2 2026-04-15 16:25 1.5M
20260415T12Z_MSC_GDPS_WindDir_IsbL-0650_LatLon0.15_PT105H.grib2 2026-04-15 16:25 1.5M
20260415T12Z_MSC_GDPS_WindDir_IsbL-0700_LatLon0.15_PT105H.grib2 2026-04-15 16:25 1.6M
20260415T12Z_MSC_GDPS_WindDir_IsbL-0750_LatLon0.15_PT105H.grib2 2026-04-15 16:25 1.7M
20260415T12Z_MSC_GDPS_WindDir_IsbL-0800_LatLon0.15_PT105H.grib2 2026-04-15 16:25 1.8M
20260415T12Z_MSC_GDPS_WindDir_IsbL-0850_LatLon0.15_PT105H.grib2 2026-04-15 16:25 1.9M
20260415T12Z_MSC_GDPS_WindDir_IsbL-0875_LatLon0.15_PT105H.grib2 2026-04-15 16:25 2.0M
20260415T12Z_MSC_GDPS_WindDir_IsbL-0900_LatLon0.15_PT105H.grib2 2026-04-15 16:25 2.0M
20260415T12Z_MSC_GDPS_WindDir_IsbL-0925_LatLon0.15_PT105H.grib2 2026-04-15 16:25 2.0M
20260415T12Z_MSC_GDPS_WindDir_IsbL-0950_LatLon0.15_PT105H.grib2 2026-04-15 16:25 2.0M
20260415T12Z_MSC_GDPS_WindDir_IsbL-0970_LatLon0.15_PT105H.grib2 2026-04-15 16:25 2.0M
20260415T12Z_MSC_GDPS_WindDir_IsbL-0985_LatLon0.15_PT105H.grib2 2026-04-15 16:25 2.1M
20260415T12Z_MSC_GDPS_WindDir_IsbL-1000_LatLon0.15_PT105H.grib2 2026-04-15 16:25 2.1M
20260415T12Z_MSC_GDPS_WindDir_IsbL-1015_LatLon0.15_PT105H.grib2 2026-04-15 16:25 2.1M
20260415T12Z_MSC_GDPS_WindGust-Max_AGL-10m_LatLon0.15_PT105H.grib2 2026-04-15 16:25 2.3M
20260415T12Z_MSC_GDPS_WindGust-Min_AGL-10m_LatLon0.15_PT105H.grib2 2026-04-15 16:25 2.2M
20260415T12Z_MSC_GDPS_WindGust_AGL-10m_LatLon0.15_PT105H.grib2 2026-04-15 16:25 2.2M
20260415T12Z_MSC_GDPS_WindSpeed_AGL-10m_LatLon0.15_PT105H.grib2 2026-04-15 16:25 1.1M
20260415T12Z_MSC_GDPS_WindSpeed_AGL-120m_LatLon0.15_PT105H.grib2 2026-04-15 16:25 1.2M
20260415T12Z_MSC_GDPS_WindSpeed_AGL-40m_LatLon0.15_PT105H.grib2 2026-04-15 16:25 1.2M
20260415T12Z_MSC_GDPS_WindSpeed_AGL-80m_LatLon0.15_PT105H.grib2 2026-04-15 16:25 1.2M
20260415T12Z_MSC_GDPS_WindSpeed_IsbL-0001_LatLon0.15_PT105H.grib2 2026-04-15 16:25 632K
20260415T12Z_MSC_GDPS_WindSpeed_IsbL-0005_LatLon0.15_PT105H.grib2 2026-04-15 16:25 692K
20260415T12Z_MSC_GDPS_WindSpeed_IsbL-0010_LatLon0.15_PT105H.grib2 2026-04-15 16:25 625K
20260415T12Z_MSC_GDPS_WindSpeed_IsbL-0020_LatLon0.15_PT105H.grib2 2026-04-15 16:25 667K
20260415T12Z_MSC_GDPS_WindSpeed_IsbL-0030_LatLon0.15_PT105H.grib2 2026-04-15 16:25 854K
20260415T12Z_MSC_GDPS_WindSpeed_IsbL-0050_LatLon0.15_PT105H.grib2 2026-04-15 16:25 913K
20260415T12Z_MSC_GDPS_WindSpeed_IsbL-0100_LatLon0.15_PT105H.grib2 2026-04-15 16:25 1.1M
20260415T12Z_MSC_GDPS_WindSpeed_IsbL-0150_LatLon0.15_PT105H.grib2 2026-04-15 16:25 1.0M
20260415T12Z_MSC_GDPS_WindSpeed_IsbL-0175_LatLon0.15_PT105H.grib2 2026-04-15 16:25 1.0M
20260415T12Z_MSC_GDPS_WindSpeed_IsbL-0200_LatLon0.15_PT105H.grib2 2026-04-15 16:25 1.1M
20260415T12Z_MSC_GDPS_WindSpeed_IsbL-0225_LatLon0.15_PT105H.grib2 2026-04-15 16:25 1.1M
20260415T12Z_MSC_GDPS_WindSpeed_IsbL-0250_LatLon0.15_PT105H.grib2 2026-04-15 16:25 1.1M
20260415T12Z_MSC_GDPS_WindSpeed_IsbL-0275_LatLon0.15_PT105H.grib2 2026-04-15 16:25 1.1M
20260415T12Z_MSC_GDPS_WindSpeed_IsbL-0300_LatLon0.15_PT105H.grib2 2026-04-15 16:25 1.1M
20260415T12Z_MSC_GDPS_WindSpeed_IsbL-0350_LatLon0.15_PT105H.grib2 2026-04-15 16:25 1.1M
20260415T12Z_MSC_GDPS_WindSpeed_IsbL-0400_LatLon0.15_PT105H.grib2 2026-04-15 16:25 1.1M
20260415T12Z_MSC_GDPS_WindSpeed_IsbL-0450_LatLon0.15_PT105H.grib2 2026-04-15 16:25 1.1M
20260415T12Z_MSC_GDPS_WindSpeed_IsbL-0500_LatLon0.15_PT105H.grib2 2026-04-15 16:25 1.1M
20260415T12Z_MSC_GDPS_WindSpeed_IsbL-0550_LatLon0.15_PT105H.grib2 2026-04-15 16:25 1.1M
20260415T12Z_MSC_GDPS_WindSpeed_IsbL-0600_LatLon0.15_PT105H.grib2 2026-04-15 16:25 1.1M
20260415T12Z_MSC_GDPS_WindSpeed_IsbL-0650_LatLon0.15_PT105H.grib2 2026-04-15 16:25 1.2M
20260415T12Z_MSC_GDPS_WindSpeed_IsbL-0700_LatLon0.15_PT105H.grib2 2026-04-15 16:25 1.5M
20260415T12Z_MSC_GDPS_WindSpeed_IsbL-0750_LatLon0.15_PT105H.grib2 2026-04-15 16:25 1.5M
20260415T12Z_MSC_GDPS_WindSpeed_IsbL-0800_LatLon0.15_PT105H.grib2 2026-04-15 16:25 1.6M
20260415T12Z_MSC_GDPS_WindSpeed_IsbL-0850_LatLon0.15_PT105H.grib2 2026-04-15 16:25 1.8M
20260415T12Z_MSC_GDPS_WindSpeed_IsbL-0875_LatLon0.15_PT105H.grib2 2026-04-15 16:25 1.9M
20260415T12Z_MSC_GDPS_WindSpeed_IsbL-0900_LatLon0.15_PT105H.grib2 2026-04-15 16:25 1.9M
20260415T12Z_MSC_GDPS_WindSpeed_IsbL-0925_LatLon0.15_PT105H.grib2 2026-04-15 16:25 1.9M
20260415T12Z_MSC_GDPS_WindSpeed_IsbL-0950_LatLon0.15_PT105H.grib2 2026-04-15 16:25 1.9M
20260415T12Z_MSC_GDPS_WindSpeed_IsbL-0970_LatLon0.15_PT105H.grib2 2026-04-15 16:25 1.9M
20260415T12Z_MSC_GDPS_WindSpeed_IsbL-0985_LatLon0.15_PT105H.grib2 2026-04-15 16:25 1.8M
20260415T12Z_MSC_GDPS_WindSpeed_IsbL-1000_LatLon0.15_PT105H.grib2 2026-04-15 16:25 1.8M
20260415T12Z_MSC_GDPS_WindSpeed_IsbL-1015_LatLon0.15_PT105H.grib2 2026-04-15 16:25 1.8M
20260415T12Z_MSC_GDPS_WindU_AGL-10m_LatLon0.15_PT105H.grib2 2026-04-15 16:25 1.6M
20260415T12Z_MSC_GDPS_WindU_AGL-120m_LatLon0.15_PT105H.grib2 2026-04-15 16:25 1.0M
20260415T12Z_MSC_GDPS_WindU_AGL-40m_LatLon0.15_PT105H.grib2 2026-04-15 16:25 967K
20260415T12Z_MSC_GDPS_WindU_AGL-80m_LatLon0.15_PT105H.grib2 2026-04-15 16:25 1.0M
20260415T12Z_MSC_GDPS_WindU_IsbL-0001_LatLon0.15_PT105H.grib2 2026-04-15 16:25 636K
20260415T12Z_MSC_GDPS_WindU_IsbL-0005_LatLon0.15_PT105H.grib2 2026-04-15 16:25 690K
20260415T12Z_MSC_GDPS_WindU_IsbL-0010_LatLon0.15_PT105H.grib2 2026-04-15 16:25 702K
20260415T12Z_MSC_GDPS_WindU_IsbL-0020_LatLon0.15_PT105H.grib2 2026-04-15 16:25 735K
20260415T12Z_MSC_GDPS_WindU_IsbL-0030_LatLon0.15_PT105H.grib2 2026-04-15 16:25 735K
20260415T12Z_MSC_GDPS_WindU_IsbL-0050_LatLon0.15_PT105H.grib2 2026-04-15 16:25 703K
20260415T12Z_MSC_GDPS_WindU_IsbL-0100_LatLon0.15_PT105H.grib2 2026-04-15 16:25 926K
20260415T12Z_MSC_GDPS_WindU_IsbL-0150_LatLon0.15_PT105H.grib2 2026-04-15 16:25 1.0M
20260415T12Z_MSC_GDPS_WindU_IsbL-0175_LatLon0.15_PT105H.grib2 2026-04-15 16:25 1.0M
20260415T12Z_MSC_GDPS_WindU_IsbL-0200_LatLon0.15_PT105H.grib2 2026-04-15 16:25 848K
20260415T12Z_MSC_GDPS_WindU_IsbL-0225_LatLon0.15_PT105H.grib2 2026-04-15 16:25 857K
20260415T12Z_MSC_GDPS_WindU_IsbL-0250_LatLon0.15_PT105H.grib2 2026-04-15 16:25 855K
20260415T12Z_MSC_GDPS_WindU_IsbL-0275_LatLon0.15_PT105H.grib2 2026-04-15 16:25 882K
20260415T12Z_MSC_GDPS_WindU_IsbL-0300_LatLon0.15_PT105H.grib2 2026-04-15 16:25 871K
20260415T12Z_MSC_GDPS_WindU_IsbL-0350_LatLon0.15_PT105H.grib2 2026-04-15 16:25 883K
20260415T12Z_MSC_GDPS_WindU_IsbL-0400_LatLon0.15_PT105H.grib2 2026-04-15 16:25 884K
20260415T12Z_MSC_GDPS_WindU_IsbL-0450_LatLon0.15_PT105H.grib2 2026-04-15 16:25 886K
20260415T12Z_MSC_GDPS_WindU_IsbL-0500_LatLon0.15_PT105H.grib2 2026-04-15 16:25 1.1M
20260415T12Z_MSC_GDPS_WindU_IsbL-0550_LatLon0.15_PT105H.grib2 2026-04-15 16:25 1.1M
20260415T12Z_MSC_GDPS_WindU_IsbL-0600_LatLon0.15_PT105H.grib2 2026-04-15 16:25 1.1M
20260415T12Z_MSC_GDPS_WindU_IsbL-0650_LatLon0.15_PT105H.grib2 2026-04-15 16:25 1.2M
20260415T12Z_MSC_GDPS_WindU_IsbL-0700_LatLon0.15_PT105H.grib2 2026-04-15 16:25 1.2M
20260415T12Z_MSC_GDPS_WindU_IsbL-0750_LatLon0.15_PT105H.grib2 2026-04-15 16:25 1.3M
20260415T12Z_MSC_GDPS_WindU_IsbL-0800_LatLon0.15_PT105H.grib2 2026-04-15 16:25 1.3M
20260415T12Z_MSC_GDPS_WindU_IsbL-0850_LatLon0.15_PT105H.grib2 2026-04-15 16:25 1.4M
20260415T12Z_MSC_GDPS_WindU_IsbL-0875_LatLon0.15_PT105H.grib2 2026-04-15 16:25 1.4M
20260415T12Z_MSC_GDPS_WindU_IsbL-0900_LatLon0.15_PT105H.grib2 2026-04-15 16:25 1.4M
20260415T12Z_MSC_GDPS_WindU_IsbL-0925_LatLon0.15_PT105H.grib2 2026-04-15 16:25 1.4M
20260415T12Z_MSC_GDPS_WindU_IsbL-0950_LatLon0.15_PT105H.grib2 2026-04-15 16:25 1.4M
20260415T12Z_MSC_GDPS_WindU_IsbL-0970_LatLon0.15_PT105H.grib2 2026-04-15 16:25 1.4M
20260415T12Z_MSC_GDPS_WindU_IsbL-0985_LatLon0.15_PT105H.grib2 2026-04-15 16:25 1.4M
20260415T12Z_MSC_GDPS_WindU_IsbL-1000_LatLon0.15_PT105H.grib2 2026-04-15 16:25 1.7M
20260415T12Z_MSC_GDPS_WindU_IsbL-1015_LatLon0.15_PT105H.grib2 2026-04-15 16:25 1.6M
20260415T12Z_MSC_GDPS_WindV_AGL-10m_LatLon0.15_PT105H.grib2 2026-04-15 16:25 1.6M
20260415T12Z_MSC_GDPS_WindV_AGL-120m_LatLon0.15_PT105H.grib2 2026-04-15 16:25 1.0M
20260415T12Z_MSC_GDPS_WindV_AGL-40m_LatLon0.15_PT105H.grib2 2026-04-15 16:25 1.0M
20260415T12Z_MSC_GDPS_WindV_AGL-80m_LatLon0.15_PT105H.grib2 2026-04-15 16:25 1.0M
20260415T12Z_MSC_GDPS_WindV_IsbL-0001_LatLon0.15_PT105H.grib2 2026-04-15 16:25 759K
20260415T12Z_MSC_GDPS_WindV_IsbL-0005_LatLon0.15_PT105H.grib2 2026-04-15 16:25 778K
20260415T12Z_MSC_GDPS_WindV_IsbL-0010_LatLon0.15_PT105H.grib2 2026-04-15 16:25 627K
20260415T12Z_MSC_GDPS_WindV_IsbL-0020_LatLon0.15_PT105H.grib2 2026-04-15 16:25 853K
20260415T12Z_MSC_GDPS_WindV_IsbL-0030_LatLon0.15_PT105H.grib2 2026-04-15 16:25 851K
20260415T12Z_MSC_GDPS_WindV_IsbL-0050_LatLon0.15_PT105H.grib2 2026-04-15 16:25 904K
20260415T12Z_MSC_GDPS_WindV_IsbL-0100_LatLon0.15_PT105H.grib2 2026-04-15 16:25 852K
20260415T12Z_MSC_GDPS_WindV_IsbL-0150_LatLon0.15_PT105H.grib2 2026-04-15 16:25 1.0M
20260415T12Z_MSC_GDPS_WindV_IsbL-0175_LatLon0.15_PT105H.grib2 2026-04-15 16:25 1.0M
20260415T12Z_MSC_GDPS_WindV_IsbL-0200_LatLon0.15_PT105H.grib2 2026-04-15 16:25 844K
20260415T12Z_MSC_GDPS_WindV_IsbL-0225_LatLon0.15_PT105H.grib2 2026-04-15 16:25 909K
20260415T12Z_MSC_GDPS_WindV_IsbL-0250_LatLon0.15_PT105H.grib2 2026-04-15 16:25 908K
20260415T12Z_MSC_GDPS_WindV_IsbL-0275_LatLon0.15_PT105H.grib2 2026-04-15 16:25 936K
20260415T12Z_MSC_GDPS_WindV_IsbL-0300_LatLon0.15_PT105H.grib2 2026-04-15 16:25 926K
20260415T12Z_MSC_GDPS_WindV_IsbL-0350_LatLon0.15_PT105H.grib2 2026-04-15 16:25 938K
20260415T12Z_MSC_GDPS_WindV_IsbL-0400_LatLon0.15_PT105H.grib2 2026-04-15 16:25 939K
20260415T12Z_MSC_GDPS_WindV_IsbL-0450_LatLon0.15_PT105H.grib2 2026-04-15 16:25 880K
20260415T12Z_MSC_GDPS_WindV_IsbL-0500_LatLon0.15_PT105H.grib2 2026-04-15 16:25 886K
20260415T12Z_MSC_GDPS_WindV_IsbL-0550_LatLon0.15_PT105H.grib2 2026-04-15 16:25 1.1M
20260415T12Z_MSC_GDPS_WindV_IsbL-0600_LatLon0.15_PT105H.grib2 2026-04-15 16:25 1.1M
20260415T12Z_MSC_GDPS_WindV_IsbL-0650_LatLon0.15_PT105H.grib2 2026-04-15 16:25 1.2M
20260415T12Z_MSC_GDPS_WindV_IsbL-0700_LatLon0.15_PT105H.grib2 2026-04-15 16:25 1.2M
20260415T12Z_MSC_GDPS_WindV_IsbL-0750_LatLon0.15_PT105H.grib2 2026-04-15 16:25 1.3M
20260415T12Z_MSC_GDPS_WindV_IsbL-0800_LatLon0.15_PT105H.grib2 2026-04-15 16:25 1.3M
20260415T12Z_MSC_GDPS_WindV_IsbL-0850_LatLon0.15_PT105H.grib2 2026-04-15 16:25 1.4M
20260415T12Z_MSC_GDPS_WindV_IsbL-0875_LatLon0.15_PT105H.grib2 2026-04-15 16:25 1.4M
20260415T12Z_MSC_GDPS_WindV_IsbL-0900_LatLon0.15_PT105H.grib2 2026-04-15 16:25 1.4M
20260415T12Z_MSC_GDPS_WindV_IsbL-0925_LatLon0.15_PT105H.grib2 2026-04-15 16:25 1.4M
20260415T12Z_MSC_GDPS_WindV_IsbL-0950_LatLon0.15_PT105H.grib2 2026-04-15 16:25 1.4M
20260415T12Z_MSC_GDPS_WindV_IsbL-0970_LatLon0.15_PT105H.grib2 2026-04-15 16:25 1.4M
20260415T12Z_MSC_GDPS_WindV_IsbL-0985_LatLon0.15_PT105H.grib2 2026-04-15 16:25 1.4M
20260415T12Z_MSC_GDPS_WindV_IsbL-1000_LatLon0.15_PT105H.grib2 2026-04-15 16:25 1.7M
20260415T12Z_MSC_GDPS_WindV_IsbL-1015_LatLon0.15_PT105H.grib2 2026-04-15 16:25 1.6M